Regional Weather Roundup
Issued by NWS

Home | Current Version | Previous Version | Text Only | Print | Product List | Glossary On
Versions: 1 2 3 4 5 6 7 8 9 10 11 12 13 14 15 16 17 18 19 20 21 22 23 24 25 26 27 28 29 30 31 32 33 34 35 36 37 38 39 40 41 42 43 44 45 46 47 48 49 50
000
ASUS43 KBIS 190802
RWRND

NORTH DAKOTA REGIONAL WEATHER ROUNDUP
NATIONAL WEATHER SERVICE BISMARCK ND
200 AM CST SUN FEB 19 2017

NOTE: "FAIR" INDICATES FEW OR NO CLOUDS BELOW 12,000 FEET WITH NO
SIGNIFICANT WEATHER AND/OR OBSTRUCTIONS TO VISIBILITY.


NDZ001>003-009>011-017-190900-
NORTHWEST NORTH DAKOTA

CITY           SKY/WX    TMP DP  RH WIND       PRES   REMARKS
WILLISTON      FAIR      32  29  88 E7        29.64S
MINOT          FAIR      32  29  88 NE7       29.69F
$$

NDZ018>021-031>035-040>046-190900-
SOUTHWEST NORTH DAKOTA

CITY           SKY/WX    TMP DP  RH WIND       PRES   REMARKS
BISMARCK       FAIR      34  32  92 E10       29.66F
DICKINSON      MOCLDY    29  28  96 NE9       29.56F FOG
GARRISON         N/A     33  30  88 E12       29.66F
HETTINGER ARPT CLOUDY    35  31  85 E5        29.59F
$$

NDZ004>008-012>016-024-026-027-054-190900-
NORTHEAST NORTH DAKOTA

CITY           SKY/WX    TMP DP  RH WIND       PRES   REMARKS
GRAND FORKS    CLOUDY    36  30  79 NE6       29.83R
GRND FRKS AFB  CLOUDY    35  32  90 E6        29.82S
DEVILS LAKE    CLOUDY    35  31  85 E15       29.77S
$$

NDZ022-023-025-028>030-036>039-047>053-190900-
SOUTHEAST NORTH DAKOTA

CITY           SKY/WX    TMP DP  RH WIND       PRES   REMARKS
FARGO          CLOUDY    34  33  96 E7        29.79S
JAMESTOWN      FAIR      35  34  96 E15       29.71F
$$




USA.gov is the U.S. government's official web portal to all federal, state and local government web resources and services.